This is the latest recevied weather packets stored in our database for station/object WP3OF-5. If no packets are shown the sender has not sent any weather packets the latest 10 day(s).
| Time | Temp. | Humidity | Pressure | Rain* | Wind** | Luminosity | Snow |
|---|---|---|---|---|---|---|---|
| 1777680210 | 22.78° C | 96% | 1015 hPa | 1.78 mm | - | - | - |
| 1777679906 | 22.78° C | 96% | 1014.6 hPa | 1.27 mm | - | - | - |
| 1777679602 | 23.33° C | 96% | 1014.4 hPa | 1.27 mm | - | - | - |
| 1777679297 | 23.33° C | 96% | 1014.8 hPa | 0 mm | - | - | - |
| 1777678995 | 23.33° C | 96% | 1014.6 hPa | 0 mm | - | - | - |
| 1777678693 | 22.78° C | 95% | 1014.8 hPa | 10.67 mm | - | - | - |
| 1777678390 | 22.78° C | 95% | 1014.7 hPa | 14.99 mm | - | - | - |
| 1777678085 | 22.78° C | 95% | 1014.8 hPa | 7.11 mm | - | - | - |
| 1777677783 | 22.78° C | 95% | 1014.7 hPa | 4.83 mm | - | - | - |
| 1777677480 | 22.78° C | 95% | 1014.5 hPa | 7.87 mm | - | - | - |
| 1777677178 | 23.33° C | 95% | 1014.7 hPa | 8.89 mm | - | - | - |
| 1777676876 | 23.33° C | 94% | 1014.4 hPa | 7.11 mm | - | - | - |
| 1777676575 | 22.78° C | 94% | 1014.6 hPa | 7.11 mm | - | - | - |
| 1777676272 | 23.33° C | 94% | 1014.5 hPa | 3.05 mm | - | - | - |
| 1777675970 | 23.33° C | 93% | 1014.3 hPa | 0 mm | - | - | - |
| 1777675665 | 23.33° C | 93% | 1014.1 hPa | 0 mm | - | - | - |
| 1777675363 | 23.33° C | 93% | 1014 hPa | 0 mm | - | - | - |
| 1777675059 | 23.33° C | 92% | 1014.5 hPa | 0 mm | - | - | - |
| 1777674756 | 23.33° C | 91% | 1014.1 hPa | 0 mm | - | - | - |
| 1777674452 | 23.89° C | 92% | 1014.3 hPa | 1.78 mm | - | - | - |
| 1777674150 | 24.44° C | 92% | 1014.2 hPa | 1.78 mm | - | - | - |
| 1777673846 | 24.44° C | 92% | 1014.3 hPa | 1.27 mm | - | - | - |
| 1777673543 | 24.44° C | 93% | 1014 hPa | 3.05 mm | - | - | - |
| 1777673240 | 24.44° C | 93% | 1013.9 hPa | 3.05 mm | - | - | - |
| 1777672938 | 24.44° C | 92% | 1013.7 hPa | 7.87 mm | - | - | - |
* Rain latest hour (hover to see other rain measurements)
** Current wind speed in m/s (hover to see current wind gust speed)